Regional Weather Roundup
Issued by NWS Newport/Morehead, NC

Current Version | Previous Version | Graphics & Text | Print | Product List | Glossary Off
Versions: 1 2 3 4 5 6 7 8 9 10 11 12 13 14 15 16 17 18 19 20 21 22 23 24 25 26 27 28 29 30 31 32 33 34 35 36 37 38 39 40 41 42 43 44 45 46 47 48 49 50

000
ASUS42 KMHX 182124
RWRMHX
WEATHER ROUNDUP FOR EASTERN NORTH CAROLINA
NATIONAL WEATHER SERVICE NEWPORT/MOREHEAD CITY NC
500 PM EDT SAT APR 18 2015

NOTE: "FAIR" INDICATES FEW OR NO CLOUDS BELOW 12,000 FEET
WITH NO SIGNIFICANT WEATHER AND/OR OBSTRUCTIONS TO VISIBILITY

NCZ015>017-031-032-045>047-102-103-182200-
NORTH COAST

CITY           SKY/WX    TMP DP  RH WIND       PRES   REMARKS
EDENTON        PTSUNNY   70  65  85 E5        29.96R
ELIZABETH CITY MOSUNNY   75  61  61 E7        29.95S
KITTY HAWK     PTCLDY    65  59  82 E3        29.95S
MANTEO         PTSUNNY   67  62  83 E7        29.96S

$$

NCZ045>047-081-094-103-104-182200-
CENTRAL COAST

CITY           SKY/WX    TMP DP  RH WIND       PRES   REMARKS
FRISCO         PTSUNNY   72  62  71 SE7       29.95S
SWANQUARTER      N/A     75 N/A N/A SE8       29.91S

$$

NCZ095-097-098-100-101-182200-
SOUTHERN COAST

CITY           SKY/WX    TMP DP  RH WIND       PRES   REMARKS
BEAUFORT       PTSUNNY   71  64  78 MISG      29.95S
CEDAR ISLAND     N/A     75 N/A N/A SE7       29.97S
JACKSONVILLE   LGT RAIN  69  65  86 SW3       29.94F
PINEY ISLAND   MOCLDY   N/A N/A N/A SE6       29.95S
WILMINGTON     MOSUNNY   75  62  64 E7        29.95F


$$

NCZ011>013-027>030-043-044-078>080-089-090>093-098-182200-
COASTAL PLAIN

CITY           SKY/WX    TMP DP  RH WIND       PRES   REMARKS
AHOSKIE        PTSUNNY   74  63  66 E7G16     29.94R
CLINTON        CLOUDY    75  67  76 CALM      29.95S
ELIZABETHTOWN  CLOUDY    74  63  69 CALM      29.94S
GOLDSBORO      PTSUNNY   78  64  62 S2        29.92S
GREENVILLE     PTSUNNY   81  61  50 W3        29.94F
HAVELOCK       PTSUNNY   74  65  73 SW6       29.95F
KENANSVILLE    PTSUNNY   74  65  72 SE5       29.95S
KINSTON        PTSUNNY   79  64  61 S7        29.94F
NEW BERN       PTSUNNY   76  66  71 S8        29.94F
RICHLANDS      CLOUDY    72  63  73 SE9       29.95F
ROCKY MOUNT    MOSUNNY   82  60  47 CALM      29.92F
WASHINGTON     MOSUNNY   79  64  60 S8        29.93S
WHITEVILLE     MOSUNNY   76  64  66 S7        29.94S

$$

AMZ130-135-150-152-154-156-158-170-250-252-270-ANZ085-086-088-633-658-670-182200-
MARINE OBSERVATIONS

STATION/POSITION TIME  TEMP    WIND        PRES    WAVE   SWELL
                       AIR SEA DIR/SP/G            HT/PER HT/PER
                 (UTC) (F)     (DEG/KT/KT) (MB)    (FT/S) (FT/S)
CHESAPEAKE LIGHT 2100   55      70/  9/ 10 1015.7
64 E VA BEACH    2050   59 57   30/  8/  8 1014.2    4/ 8   3/ 8
DUCK             2100   57 56   30/  5/  6 1013.7
2 E DUCK         2011      56                N/A     3/ 8   2/12
10 NE DUCK       NOT AVBL
OREGON INLET     2100   59 63   30/  8/ 10 1014.6
HATTERAS CG      2100   71 68  110/  5/  7 1013.9
DIAMOND BUOY     2050   72 75   30/  4/  6 1014.2    4/ 9   5/ 9
CAPE LOOKOUT     2100   71     170/  2/  3 1013.9
BEAUFORT LAB     2100   71 65  200/  5/  5 1013.2
27 SE WRIGHTSVLE 2100   69 73   80/  6/  8   N/A
5 SE WRIGHTSVLE  2100   68 65  100/  4/  4 1014.1
225 S CAPE HAT   2050   72 75   90/  4/  6 1013.8    5/11   5/11
41 SE CHARLESTON 2050   71 75   50/  6/  8 1013.1    3/ 8   3/ 8

$$


USA.gov is the U.S. government's official web portal to all federal, state and local government web resources and services.